Time,TemperatureF,DewpointF,PressureIn,WindDirection,WindDirectionDegrees,WindSpeedMPH,WindSpeedGustMPH,Humidity,HourlyPrecipIn,Conditions,Clouds,dailyrainin,SoftwareType,DateUTC
2013-02-27 00:00:00,41.5,34.8,29.57,West,262,6.0,28.0,77,0.00,,,0.01,Wunderground v.1.15,2013-02-27 06:00:00,
2013-02-27 00:05:00,41.5,34.8,29.57,West,271,6.0,28.0,77,0.00,,,0.01,Wunderground v.1.15,2013-02-27 06:05:00,
2013-02-27 00:15:00,41.6,34.6,29.58,West,276,9.0,28.0,76,0.00,,,0.01,Wunderground v.1.15,2013-02-27 06:15:00,
2013-02-27 00:25:00,41.6,34.6,29.59,West,271,8.0,28.0,76,0.00,,,0.01,Wunderground v.1.15,2013-02-27 06:25:00,
2013-02-27 00:30:00,41.6,34.3,29.59,WNW,288,7.0,28.0,75,0.00,,,0.01,Wunderground v.1.15,2013-02-27 06:30:00,
2013-02-27 00:35:00,41.6,34.3,29.59,West,273,7.0,28.0,75,0.00,,,0.01,Wunderground v.1.15,2013-02-27 06:35:00,
2013-02-27 00:40:00,41.6,34.3,29.59,WNW,290,6.0,6.0,75,0.00,,,0.01,Wunderground v.1.15,2013-02-27 06:40:00,
2013-02-27 00:50:00,41.6,34.3,29.59,West,271,6.0,28.0,75,0.00,,,0.01,Wunderground v.1.15,2013-02-27 06:50:00,
2013-02-27 00:55:00,41.6,34.3,29.59,West,281,8.0,28.0,75,0.00,,,0.01,Wunderground v.1.15,2013-02-27 06:55:00,
2013-02-27 01:00:00,41.6,33.9,29.59,WNW,283,8.0,28.0,74,0.00,,,0.01,Wunderground v.1.15,2013-02-27 07:00:00,
2013-02-27 01:05:00,41.6,33.9,29.59,West,271,9.0,28.0,74,0.00,,,0.01,Wunderground v.1.15,2013-02-27 07:05:00,
2013-02-27 01:15:00,41.5,33.8,29.60,West,272,5.0,28.0,74,0.00,,,0.01,Wunderground v.1.15,2013-02-27 07:15:00,
2013-02-27 01:25:00,41.5,34.2,29.60,WNW,286,6.0,28.0,75,0.00,,,0.01,Wunderground v.1.15,2013-02-27 07:25:00,
2013-02-27 01:30:00,41.5,34.5,29.60,NW,314,6.0,28.0,76,0.00,,,0.01,Wunderground v.1.15,2013-02-27 07:30:00,
2013-02-27 01:35:00,41.4,34.4,29.60,West,264,5.0,28.0,76,0.00,,,0.01,Wunderground v.1.15,2013-02-27 07:35:00,
2013-02-27 01:40:00,41.3,33.6,29.59,West,264,7.0,7.0,74,0.00,,,0.01,Wunderground v.1.15,2013-02-27 07:40:00,
2013-02-27 01:45:00,41.4,34.1,29.59,WNW,283,7.0,28.0,75,0.00,,,0.01,Wunderground v.1.15,2013-02-27 07:45:00,
2013-02-27 01:55:00,41.3,34.0,29.59,WSW,250,4.0,28.0,75,0.00,,,0.01,Wunderground v.1.15,2013-02-27 07:55:00,
2013-02-27 02:00:00,41.2,33.5,29.59,WNW,286,7.0,28.0,74,0.00,,,0.01,Wunderground v.1.15,2013-02-27 08:00:00,
2013-02-27 02:10:00,41.1,33.4,29.58,WNW,287,7.0,28.0,74,0.00,,,0.01,Wunderground v.1.15,2013-02-27 08:10:00,
2013-02-27 02:15:00,41.0,33.0,29.58,NW,316,6.0,28.0,73,0.00,,,0.01,Wunderground v.1.15,2013-02-27 08:15:00,
2013-02-27 02:20:00,41.0,33.0,29.58,WNW,292,5.0,5.0,73,0.00,,,0.01,Wunderground v.1.15,2013-02-27 08:20:00,
2013-02-27 02:30:00,41.0,33.3,29.59,WNW,284,4.0,28.0,74,0.00,,,0.00,Wunderground v.1.15,2013-02-27 08:30:00,
2013-02-27 02:35:00,40.9,33.2,29.59,WSW,248,5.0,28.0,74,0.00,,,0.00,Wunderground v.1.15,2013-02-27 08:35:00,
2013-02-27 02:40:00,40.9,33.2,29.59,WNW,295,6.0,28.0,74,0.00,,,0.00,Wunderground v.1.15,2013-02-27 08:40:00,
2013-02-27 02:45:00,40.9,32.9,29.59,West,260,7.0,28.0,73,0.00,,,0.00,Wunderground v.1.15,2013-02-27 08:45:00,
2013-02-27 02:55:00,40.8,32.5,29.59,West,280,8.0,28.0,72,0.00,,,0.00,Wunderground v.1.15,2013-02-27 08:55:00,
2013-02-27 03:05:00,40.8,31.8,29.59,WSW,239,9.0,10.0,70,0.00,,,0.00,Wunderground v.1.15,2013-02-27 09:05:00,
2013-02-27 03:10:00,40.8,31.8,29.59,West,280,8.0,8.0,70,0.00,,,0.00,Wunderground v.1.15,2013-02-27 09:10:00,
2013-02-27 03:15:00,40.9,31.9,29.59,WNW,294,8.0,11.0,70,0.00,,,0.00,Wunderground v.1.15,2013-02-27 09:15:00,
2013-02-27 03:20:00,40.9,31.9,29.59,WNW,286,8.0,28.0,70,0.00,,,0.00,Wunderground v.1.15,2013-02-27 09:20:00,
2013-02-27 03:25:00,40.8,31.8,29.60,West,278,8.0,28.0,70,0.00,,,0.00,Wunderground v.1.15,2013-02-27 09:25:00,
2013-02-27 03:30:00,40.7,31.7,29.60,WNW,296,10.0,28.0,70,0.00,,,0.00,Wunderground v.1.15,2013-02-27 09:30:00,
2013-02-27 03:40:00,40.6,31.9,29.60,West,277,8.0,8.0,71,0.00,,,0.00,Wunderground v.1.15,2013-02-27 09:40:00,
2013-02-27 03:45:00,40.6,31.9,29.60,WNW,288,7.0,10.0,71,0.00,,,0.00,Wunderground v.1.15,2013-02-27 09:45:00,
2013-02-27 03:50:00,40.6,32.3,29.60,West,275,7.0,28.0,72,0.00,,,0.00,Wunderground v.1.15,2013-02-27 09:50:00,
2013-02-27 04:00:00,40.6,32.3,29.61,West,261,6.0,6.0,72,0.00,,,0.00,Wunderground v.1.15,2013-02-27 10:00:00,
2013-02-27 04:05:00,40.6,32.3,29.61,WSW,254,6.0,9.0,72,0.00,,,0.00,Wunderground v.1.15,2013-02-27 10:05:00,
2013-02-27 04:10:00,40.5,32.2,29.61,WNW,299,7.0,28.0,72,0.00,,,0.00,Wunderground v.1.15,2013-02-27 10:10:00,
2013-02-27 04:15:00,40.5,32.2,29.61,WNW,288,8.0,28.0,72,0.00,,,0.00,Wunderground v.1.15,2013-02-27 10:15:00,
2013-02-27 04:20:00,40.5,32.5,29.61,WNW,294,7.0,28.0,73,0.00,,,0.00,Wunderground v.1.15,2013-02-27 10:20:00,
2013-02-27 04:25:00,40.4,32.4,29.61,West,276,6.0,28.0,73,0.00,,,0.00,Wunderground v.1.15,2013-02-27 10:25:00,
2013-02-27 04:30:00,40.4,32.4,29.61,West,281,5.0,5.0,73,0.00,,,0.00,Wunderground v.1.15,2013-02-27 10:30:00,
2013-02-27 04:40:00,40.4,32.4,29.61,WSW,257,3.0,28.0,73,0.00,,,0.00,Wunderground v.1.15,2013-02-27 10:40:00,
2013-02-27 04:50:00,40.4,32.4,29.61,West,273,4.0,28.0,73,0.00,,,0.00,Wunderground v.1.15,2013-02-27 10:50:00,
2013-02-27 04:55:00,40.4,32.4,29.62,WSW,254,5.0,28.0,73,0.00,,,0.00,Wunderground v.1.15,2013-02-27 10:55:00,
2013-02-27 05:00:00,40.3,32.7,29.62,West,272,6.0,28.0,74,0.00,,,0.00,Wunderground v.1.15,2013-02-27 11:00:00,
2013-02-27 05:05:00,40.3,32.7,29.62,WSW,257,5.0,28.0,74,0.00,,,0.00,Wunderground v.1.15,2013-02-27 11:05:00,
2013-02-27 05:10:00,40.3,32.7,29.62,West,275,4.0,4.0,74,0.00,,,0.00,Wunderground v.1.15,2013-02-27 11:10:00,
2013-02-27 05:20:00,40.3,32.7,29.62,WSW,257,4.0,28.0,74,0.00,,,0.00,Wunderground v.1.15,2013-02-27 11:20:00,
2013-02-27 05:25:00,40.2,32.6,29.62,WSW,254,5.0,28.0,74,0.00,,,0.00,Wunderground v.1.15,2013-02-27 11:25:00,
2013-02-27 05:30:00,40.3,32.7,29.62,West,277,5.0,28.0,74,0.00,,,0.00,Wunderground v.1.15,2013-02-27 11:30:00,
2013-02-27 05:40:00,40.3,32.7,29.63,WNW,290,5.0,5.0,74,0.00,,,0.00,Wunderground v.1.15,2013-02-27 11:40:00,
2013-02-27 05:45:00,40.4,32.4,29.63,WNW,292,6.0,7.0,73,0.00,,,0.00,Wunderground v.1.15,2013-02-27 11:45:00,
2013-02-27 05:55:00,40.4,31.7,29.64,WSW,257,6.0,28.0,71,0.00,,,0.00,Wunderground v.1.15,2013-02-27 11:55:00,
2013-02-27 06:00:00,40.4,31.7,29.64,West,267,6.0,6.0,71,0.00,,,0.00,Wunderground v.1.15,2013-02-27 12:00:00,
2013-02-27 06:05:00,40.4,31.7,29.64,WSW,255,6.0,28.0,71,0.00,,,0.00,Wunderground v.1.15,2013-02-27 12:05:00,
2013-02-27 06:10:00,40.4,31.7,29.64,WNW,284,5.0,28.0,71,0.00,,,0.00,Wunderground v.1.15,2013-02-27 12:10:00,
2013-02-27 06:15:00,40.4,31.7,29.64,West,273,4.0,28.0,71,0.00,,,0.00,Wunderground v.1.15,2013-02-27 12:15:00,
2013-02-27 06:20:00,40.4,31.7,29.64,West,275,5.0,5.0,71,0.00,,,0.00,Wunderground v.1.15,2013-02-27 12:20:00,
2013-02-27 06:30:00,40.3,31.6,29.64,West,261,7.0,7.0,71,0.00,,,0.00,Wunderground v.1.15,2013-02-27 12:30:00,
2013-02-27 06:35:00,40.3,31.6,29.64,WSW,254,6.0,28.0,71,0.00,,,0.00,Wunderground v.1.15,2013-02-27 12:35:00,
2013-02-27 06:40:00,40.3,31.6,29.64,West,260,3.0,3.0,71,0.00,,,0.00,Wunderground v.1.15,2013-02-27 12:40:00,
2013-02-27 06:50:00,40.3,31.6,29.64,West,276,4.0,28.0,71,0.00,,,0.00,Wunderground v.1.15,2013-02-27 12:50:00,
2013-02-27 06:55:00,40.3,32.0,29.64,West,272,5.0,28.0,72,0.00,,,0.00,Wunderground v.1.15,2013-02-27 12:55:00,
2013-02-27 07:05:00,40.3,32.0,29.64,WNW,294,4.0,28.0,72,0.00,,,0.00,Wunderground v.1.15,2013-02-27 13:05:00,
2013-02-27 07:10:00,40.3,32.0,29.65,WNW,296,5.0,28.0,72,0.00,,,0.00,Wunderground v.1.15,2013-02-27 13:10:00,
2013-02-27 07:15:00,40.3,32.0,29.65,WNW,296,6.0,28.0,72,0.00,,,0.00,Wunderground v.1.15,2013-02-27 13:15:00,
2013-02-27 07:25:00,40.4,32.1,29.66,West,281,5.0,28.0,72,0.00,,,0.00,Wunderground v.1.15,2013-02-27 13:25:00,
2013-02-27 07:30:00,40.5,32.2,29.66,West,264,5.0,28.0,72,0.00,,,0.00,Wunderground v.1.15,2013-02-27 13:30:00,
2013-02-27 07:40:00,40.6,32.3,29.66,NW,312,7.0,7.0,72,0.00,,,0.00,Wunderground v.1.15,2013-02-27 13:40:00,
2013-02-27 07:45:00,40.6,32.3,29.66,West,281,4.0,9.0,72,0.00,,,0.00,Wunderground v.1.15,2013-02-27 13:45:00,
2013-02-27 07:50:00,40.6,32.3,29.66,West,274,5.0,5.0,72,0.00,,,0.00,Wunderground v.1.15,2013-02-27 13:50:00,
2013-02-27 07:55:00,40.7,32.4,29.66,NW,304,5.0,6.0,72,0.00,,,0.00,Wunderground v.1.15,2013-02-27 13:55:00,
2013-02-27 08:00:00,40.9,32.6,29.66,West,280,4.0,4.0,72,0.00,,,0.00,Wunderground v.1.15,2013-02-27 14:00:00,
2013-02-27 08:10:00,41.1,32.8,29.67,West,279,4.0,28.0,72,0.00,,,0.00,Wunderground v.1.15,2013-02-27 14:10:00,
2013-02-27 08:20:00,41.2,32.9,29.67,West,276,4.0,28.0,72,0.00,,,0.00,Wunderground v.1.15,2013-02-27 14:20:00,
2013-02-27 08:25:00,41.2,32.5,29.67,West,281,5.0,28.0,71,0.00,,,0.00,Wunderground v.1.15,2013-02-27 14:25:00,
2013-02-27 08:30:00,41.3,33.0,29.67,West,272,5.0,5.0,72,0.00,,,0.00,Wunderground v.1.15,2013-02-27 14:30:00,
2013-02-27 08:35:00,41.3,33.0,29.67,West,279,3.0,8.0,72,0.00,,,0.00,Wunderground v.1.15,2013-02-27 14:35:00,
2013-02-27 08:45:00,41.3,33.0,29.68,WNW,288,6.0,28.0,72,0.00,,,0.00,Wunderground v.1.15,2013-02-27 14:45:00,
2013-02-27 08:50:00,41.4,33.0,29.68,West,279,7.0,7.0,72,0.00,,,0.00,Wunderground v.1.15,2013-02-27 14:50:00,
2013-02-27 08:55:00,41.5,32.8,29.68,West,279,7.0,28.0,71,0.00,,,0.00,Wunderground v.1.15,2013-02-27 14:55:00,
2013-02-27 09:00:00,41.5,33.1,29.68,West,281,6.0,28.0,72,0.00,,,0.00,Wunderground v.1.15,2013-02-27 15:00:00,
2013-02-27 09:05:00,41.6,32.9,29.68,WNW,286,7.0,28.0,71,0.00,,,0.00,Wunderground v.1.15,2013-02-27 15:05:00,
2013-02-27 09:15:00,41.5,32.8,29.68,West,267,8.0,28.0,71,0.00,,,0.00,Wunderground v.1.15,2013-02-27 15:15:00,
2013-02-27 09:25:00,41.7,33.0,29.68,West,263,7.0,28.0,71,0.00,,,0.00,Wunderground v.1.15,2013-02-27 15:25:00,
2013-02-27 09:30:00,41.8,33.1,29.68,WNW,287,7.0,7.0,71,0.00,,,0.00,Wunderground v.1.15,2013-02-27 15:30:00,
2013-02-27 09:35:00,42.0,33.3,29.68,WNW,292,5.0,28.0,71,0.00,,,0.00,Wunderground v.1.15,2013-02-27 15:35:00,
2013-02-27 09:40:00,42.3,33.2,29.69,North,349,4.0,28.0,70,0.00,,,0.00,Wunderground v.1.15,2013-02-27 15:40:00,
2013-02-27 09:45:00,42.3,33.2,29.69,NW,326,6.0,28.0,70,0.00,,,0.00,Wunderground v.1.15,2013-02-27 15:45:00,
2013-02-27 09:55:00,42.6,33.1,29.69,West,277,5.0,28.0,69,0.00,,,0.00,Wunderground v.1.15,2013-02-27 15:55:00,
2013-02-27 10:00:00,42.9,33.4,29.69,WSW,256,6.0,28.0,69,0.00,,,0.00,Wunderground v.1.15,2013-02-27 16:00:00,
2013-02-27 10:05:00,42.9,33.1,29.69,West,277,7.0,28.0,68,0.00,,,0.00,Wunderground v.1.15,2013-02-27 16:05:00,
2013-02-27 10:15:00,43.1,33.3,29.69,WNW,299,7.0,28.0,68,0.00,,,0.00,Wunderground v.1.15,2013-02-27 16:15:00,
2013-02-27 10:20:00,43.1,33.6,29.69,WNW,286,6.0,6.0,69,0.00,,,0.00,Wunderground v.1.15,2013-02-27 16:20:00,
2013-02-27 10:30:00,43.0,33.5,29.69,West,275,6.0,28.0,69,0.00,,,0.00,Wunderground v.1.15,2013-02-27 16:30:00,
2013-02-27 10:35:00,42.9,33.4,29.69,West,279,7.0,28.0,69,0.00,,,0.00,Wunderground v.1.15,2013-02-27 16:35:00,
2013-02-27 10:40:00,42.8,33.7,29.69,West,279,7.0,7.0,70,0.00,,,0.00,Wunderground v.1.15,2013-02-27 16:40:00,
2013-02-27 10:45:00,42.9,33.8,29.69,West,277,6.0,28.0,70,0.00,,,0.00,Wunderground v.1.15,2013-02-27 16:45:00,
2013-02-27 10:50:00,42.9,34.1,29.69,West,278,7.0,7.0,71,0.00,,,0.00,Wunderground v.1.15,2013-02-27 16:50:00,
2013-02-27 11:00:00,43.2,33.7,29.70,SW,229,8.0,8.0,69,0.00,,,0.00,Wunderground v.1.15,2013-02-27 17:00:00,
2013-02-27 11:05:00,43.3,34.2,29.70,West,273,6.0,11.0,70,0.00,,,0.00,Wunderground v.1.15,2013-02-27 17:05:00,
2013-02-27 11:10:00,43.3,34.2,29.70,West,272,6.0,6.0,70,0.00,,,0.00,Wunderground v.1.15,2013-02-27 17:10:00,
2013-02-27 11:20:00,43.8,34.3,29.70,West,277,4.0,28.0,69,0.00,,,0.00,Wunderground v.1.15,2013-02-27 17:20:00,
2013-02-27 11:25:00,43.8,34.3,29.70,WNW,295,4.0,28.0,69,0.00,,,0.00,Wunderground v.1.15,2013-02-27 17:25:00,
2013-02-27 11:35:00,43.9,34.4,29.70,WSW,250,7.0,28.0,69,0.00,,,0.00,Wunderground v.1.15,2013-02-27 17:35:00,
2013-02-27 11:40:00,43.9,34.4,29.69,WSW,258,7.0,28.0,69,0.00,,,0.00,Wunderground v.1.15,2013-02-27 17:40:00,
2013-02-27 11:45:00,44.3,34.8,29.69,West,264,7.0,28.0,69,0.00,,,0.00,Wunderground v.1.15,2013-02-27 17:45:00,
2013-02-27 11:50:00,44.9,35.3,29.69,WSW,244,7.0,28.0,69,0.00,,,0.00,Wunderground v.1.15,2013-02-27 17:50:00,
2013-02-27 11:55:00,45.1,35.2,29.69,WSW,239,7.0,28.0,68,0.00,,,0.00,Wunderground v.1.15,2013-02-27 17:55:00,
2013-02-27 12:00:00,45.2,35.3,29.69,West,263,7.0,28.0,68,0.00,,,0.00,Wunderground v.1.15,2013-02-27 18:00:00,
2013-02-27 12:10:00,44.6,35.8,29.69,WSW,243,7.0,28.0,71,0.00,,,0.00,Wunderground v.1.15,2013-02-27 18:10:00,
2013-02-27 12:15:00,44.1,35.6,29.69,WSW,254,7.0,28.0,72,0.00,,,0.00,Wunderground v.1.15,2013-02-27 18:15:00,
2013-02-27 12:25:00,44.2,36.1,29.69,WSW,250,7.0,28.0,73,0.00,,,0.00,Wunderground v.1.15,2013-02-27 18:25:00,
2013-02-27 12:30:00,43.9,36.1,29.69,WSW,254,8.0,28.0,74,0.00,,,0.00,Wunderground v.1.15,2013-02-27 18:30:00,
2013-02-27 12:35:00,43.6,36.2,29.69,West,267,8.0,28.0,75,0.00,,,0.00,Wunderground v.1.15,2013-02-27 18:35:00,
2013-02-27 12:45:00,43.5,36.8,29.68,WSW,249,8.0,28.0,77,0.00,,,0.00,Wunderground v.1.15,2013-02-27 18:45:00,
2013-02-27 12:50:00,43.4,36.7,29.68,WSW,243,9.0,9.0,77,0.00,,,0.00,Wunderground v.1.15,2013-02-27 18:50:00,
2013-02-27 12:55:00,43.6,36.9,29.67,WNW,291,7.0,10.0,77,0.00,,,0.00,Wunderground v.1.15,2013-02-27 18:55:00,
2013-02-27 13:00:00,44.0,36.9,29.67,WNW,284,5.0,28.0,76,0.00,,,0.00,Wunderground v.1.15,2013-02-27 19:00:00,
2013-02-27 13:05:00,44.2,36.8,29.67,WNW,288,6.0,28.0,75,0.00,,,0.00,Wunderground v.1.15,2013-02-27 19:05:00,
2013-02-27 13:15:00,44.6,36.1,29.67,West,259,9.0,28.0,72,0.00,,,0.00,Wunderground v.1.15,2013-02-27 19:15:00,
2013-02-27 13:20:00,44.6,36.1,29.67,West,268,10.0,28.0,72,0.00,,,0.00,Wunderground v.1.15,2013-02-27 19:20:00,
2013-02-27 13:30:00,45.0,36.2,29.67,WNW,287,8.0,8.0,71,0.00,,,0.00,Wunderground v.1.15,2013-02-27 19:30:00,
2013-02-27 13:35:00,45.0,36.5,29.67,West,279,7.0,12.0,72,0.00,,,0.00,Wunderground v.1.15,2013-02-27 19:35:00,
2013-02-27 13:40:00,44.9,36.4,29.67,West,266,8.0,8.0,72,0.00,,,0.00,Wunderground v.1.15,2013-02-27 19:40:00,
2013-02-27 13:50:00,44.7,36.6,29.67,West,259,8.0,8.0,73,0.00,,,0.00,Wunderground v.1.15,2013-02-27 19:50:00,
2013-02-27 13:55:00,44.7,36.2,29.67,West,273,7.0,12.0,72,0.00,,,0.00,Wunderground v.1.15,2013-02-27 19:55:00,
2013-02-27 14:00:00,44.5,36.0,29.67,West,275,9.0,9.0,72,0.00,,,0.00,Wunderground v.1.15,2013-02-27 20:00:00,
2013-02-27 14:05:00,44.6,37.5,29.67,West,275,10.0,10.0,76,0.00,,,0.00,Wunderground v.1.15,2013-02-27 20:05:00,
2013-02-27 14:10:00,44.5,36.4,29.67,WNW,284,8.0,28.0,73,0.00,,,0.00,Wunderground v.1.15,2013-02-27 20:10:00,
2013-02-27 14:20:00,44.6,36.5,29.67,WSW,250,8.0,8.0,73,0.00,,,0.00,Wunderground v.1.15,2013-02-27 20:20:00,
2013-02-27 14:30:00,44.7,36.6,29.67,West,260,9.0,28.0,73,0.00,,,0.00,Wunderground v.1.15,2013-02-27 20:30:00,
2013-02-27 14:35:00,44.6,37.5,29.67,West,274,9.0,28.0,76,0.00,,,0.00,Wunderground v.1.15,2013-02-27 20:35:00,
2013-02-27 14:40:00,44.5,36.4,29.67,SW,234,9.0,9.0,73,0.00,,,0.00,Wunderground v.1.15,2013-02-27 20:40:00,
2013-02-27 14:45:00,44.5,36.4,29.67,West,275,9.0,15.0,73,0.00,,,0.00,Wunderground v.1.15,2013-02-27 20:45:00,
2013-02-27 14:50:00,44.5,36.7,29.67,WNW,287,10.0,10.0,74,0.00,,,0.00,Wunderground v.1.15,2013-02-27 20:50:00,
2013-02-27 15:00:00,44.8,36.7,29.68,WNW,291,8.0,28.0,73,0.00,,,0.00,Wunderground v.1.15,2013-02-27 21:00:00,
2013-02-27 15:05:00,45.0,36.5,29.68,WNW,284,10.0,28.0,72,0.00,,,0.00,Wunderground v.1.15,2013-02-27 21:05:00,
2013-02-27 15:15:00,45.1,36.3,29.68,West,274,9.0,14.0,71,0.00,,,0.00,Wunderground v.1.15,2013-02-27 21:15:00,
2013-02-27 15:20:00,45.0,36.5,29.68,West,260,10.0,10.0,72,0.00,,,0.00,Wunderground v.1.15,2013-02-27 21:20:00,
2013-02-27 15:25:00,45.2,36.7,29.68,West,280,7.0,28.0,72,0.00,,,0.00,Wunderground v.1.15,2013-02-27 21:25:00,
2013-02-27 15:35:00,45.5,36.6,29.68,WNW,283,8.0,8.0,71,0.00,,,0.00,Wunderground v.1.15,2013-02-27 21:35:00,
2013-02-27 15:40:00,45.5,36.6,29.68,West,281,7.0,7.0,71,0.00,,,0.00,Wunderground v.1.15,2013-02-27 21:40:00,
2013-02-27 15:45:00,45.9,36.3,29.68,West,271,5.0,28.0,69,0.00,,,0.00,Wunderground v.1.15,2013-02-27 21:45:00,
2013-02-27 15:50:00,45.8,36.2,29.68,West,281,6.0,6.0,69,0.00,,,0.00,Wunderground v.1.15,2013-02-27 21:50:00,
2013-02-27 16:00:00,45.5,35.9,29.68,WSW,250,7.0,7.0,69,0.00,,,0.00,Wunderground v.1.15,2013-02-27 22:00:00,
2013-02-27 16:10:00,45.3,36.1,29.69,WSW,240,7.0,7.0,70,0.00,,,0.00,Wunderground v.1.15,2013-02-27 22:10:00,
2013-02-27 16:15:00,45.2,36.0,29.69,WSW,250,6.0,28.0,70,0.00,,,0.00,Wunderground v.1.15,2013-02-27 22:15:00,
2013-02-27 16:20:00,45.1,35.9,29.69,West,259,6.0,28.0,70,0.00,,,0.00,Wunderground v.1.15,2013-02-27 22:20:00,
2013-02-27 16:25:00,45.0,36.2,29.70,WSW,241,7.0,28.0,71,0.00,,,0.00,Wunderground v.1.15,2013-02-27 22:25:00,
2013-02-27 16:30:00,45.0,36.2,29.70,WNW,290,6.0,28.0,71,0.00,,,0.00,Wunderground v.1.15,2013-02-27 22:30:00,
2013-02-27 16:40:00,44.7,36.2,29.70,West,260,6.0,28.0,72,0.00,,,0.00,Wunderground v.1.15,2013-02-27 22:40:00,
2013-02-27 16:45:00,44.7,36.2,29.70,West,275,7.0,28.0,72,0.00,,,0.00,Wunderground v.1.15,2013-02-27 22:45:00,
2013-02-27 16:55:00,44.6,36.5,29.70,WSW,246,5.0,7.0,73,0.00,,,0.00,Wunderground v.1.15,2013-02-27 22:55:00,
2013-02-27 17:00:00,44.6,36.5,29.70,WSW,246,6.0,6.0,73,0.00,,,0.00,Wunderground v.1.15,2013-02-27 23:00:00,
2013-02-27 17:05:00,44.7,36.6,29.70,West,260,5.0,28.0,73,0.00,,,0.00,Wunderground v.1.15,2013-02-27 23:05:00,
2013-02-27 17:15:00,44.7,36.6,29.70,West,269,6.0,28.0,73,0.00,,,0.00,Wunderground v.1.15,2013-02-27 23:15:00,
2013-02-27 17:20:00,44.7,36.6,29.70,WNW,290,5.0,28.0,73,0.00,,,0.00,Wunderground v.1.15,2013-02-27 23:20:00,
2013-02-27 17:25:00,44.7,36.6,29.70,WSW,250,5.0,28.0,73,0.00,,,0.00,Wunderground v.1.15,2013-02-27 23:25:00,
2013-02-27 17:30:00,44.7,36.6,29.70,WSW,244,5.0,5.0,73,0.00,,,0.00,Wunderground v.1.15,2013-02-27 23:30:00,
2013-02-27 17:35:00,44.7,36.6,29.70,SW,233,5.0,7.0,73,0.00,,,0.00,Wunderground v.1.15,2013-02-27 23:35:00,
2013-02-27 17:40:00,44.7,36.6,29.70,WSW,248,5.0,28.0,73,0.00,,,0.00,Wunderground v.1.15,2013-02-27 23:40:00,
2013-02-27 17:45:00,44.6,36.5,29.70,West,267,5.0,28.0,73,0.00,,,0.00,Wunderground v.1.15,2013-02-27 23:45:00,
2013-02-27 17:55:00,44.5,36.7,29.70,West,281,6.0,6.0,74,0.00,,,0.00,Wunderground v.1.15,2013-02-27 23:55:00,
2013-02-27 18:00:00,44.4,36.6,29.70,West,276,3.0,28.0,74,0.00,,,0.00,Wunderground v.1.15,2013-02-28 00:00:00,
2013-02-27 18:05:00,44.4,36.6,29.70,West,261,3.0,28.0,74,0.00,,,0.00,Wunderground v.1.15,2013-02-28 00:05:00,
2013-02-27 18:10:00,44.4,36.6,29.70,West,269,4.0,4.0,74,0.00,,,0.00,Wunderground v.1.15,2013-02-28 00:10:00,
2013-02-27 18:15:00,44.4,36.6,29.70,WNW,288,4.0,10.0,74,0.00,,,0.00,Wunderground v.1.15,2013-02-28 00:15:00,
2013-02-27 18:25:00,44.1,36.3,29.71,WSW,238,4.0,28.0,74,0.00,,,0.00,Wunderground v.1.15,2013-02-28 00:25:00,
2013-02-27 18:30:00,43.9,36.5,29.71,WSW,245,4.0,4.0,75,0.00,,,0.00,Wunderground v.1.15,2013-02-28 00:30:00,
2013-02-27 18:35:00,43.8,36.4,29.71,WSW,246,3.0,28.0,75,0.00,,,0.00,Wunderground v.1.15,2013-02-28 00:35:00,
2013-02-27 18:40:00,43.8,36.4,29.70,WSW,256,2.0,28.0,75,0.00,,,0.00,Wunderground v.1.15,2013-02-28 00:40:00,
2013-02-27 18:50:00,43.7,36.6,29.70,SW,229,3.0,3.0,76,0.00,,,0.00,Wunderground v.1.15,2013-02-28 00:50:00,
2013-02-27 19:00:00,43.6,36.5,29.70,WSW,250,1.0,28.0,76,0.00,,,0.00,Wunderground v.1.15,2013-02-28 01:00:00,
2013-02-27 19:05:00,43.6,36.5,29.70,WSW,246,3.0,28.0,76,0.00,,,0.00,Wunderground v.1.15,2013-02-28 01:05:00,
2013-02-27 19:10:00,43.7,36.6,29.70,WSW,246,4.0,4.0,76,0.00,,,0.00,Wunderground v.1.15,2013-02-28 01:10:00,
2013-02-27 19:15:00,43.8,36.4,29.70,WSW,246,4.0,28.0,75,0.00,,,0.00,Wunderground v.1.15,2013-02-28 01:15:00,
2013-02-27 19:20:00,43.9,36.5,29.70,WSW,252,4.0,4.0,75,0.00,,,0.00,Wunderground v.1.15,2013-02-28 01:20:00,
2013-02-27 19:30:00,44.0,36.6,29.70,West,259,5.0,5.0,75,0.00,,,0.00,Wunderground v.1.15,2013-02-28 01:30:00,
2013-02-27 19:35:00,44.1,36.3,29.70,WSW,237,4.0,28.0,74,0.00,,,0.00,Wunderground v.1.15,2013-02-28 01:35:00,
2013-02-27 19:40:00,44.2,36.4,29.70,WSW,248,4.0,4.0,74,0.00,,,0.00,Wunderground v.1.15,2013-02-28 01:40:00,
2013-02-27 19:45:00,44.3,36.5,29.70,WSW,242,4.0,28.0,74,0.00,,,0.00,Wunderground v.1.15,2013-02-28 01:45:00,
2013-02-27 19:55:00,44.3,36.5,29.70,West,265,6.0,28.0,74,0.00,,,0.00,Wunderground v.1.15,2013-02-28 01:55:00,
2013-02-27 20:05:00,44.4,36.6,29.70,West,271,4.0,28.0,74,0.00,,,0.00,Wunderground v.1.15,2013-02-28 02:05:00,
2013-02-27 20:10:00,44.5,36.4,29.70,WSW,245,4.0,4.0,73,0.00,,,0.00,Wunderground v.1.15,2013-02-28 02:10:00,
2013-02-27 20:15:00,44.5,36.4,29.70,West,261,5.0,6.0,73,0.00,,,0.00,Wunderground v.1.15,2013-02-28 02:15:00,
2013-02-27 20:20:00,44.6,36.1,29.70,WSW,243,6.0,28.0,72,0.00,,,0.00,Wunderground v.1.15,2013-02-28 02:20:00,
2013-02-27 20:25:00,44.6,36.1,29.70,West,263,7.0,28.0,72,0.00,,,0.00,Wunderground v.1.15,2013-02-28 02:25:00,
2013-02-27 20:30:00,44.6,36.1,29.70,West,261,6.0,6.0,72,0.00,,,0.00,Wunderground v.1.15,2013-02-28 02:30:00,
2013-02-27 20:35:00,44.6,36.1,29.70,WNW,300,6.0,28.0,72,0.00,,,0.00,Wunderground v.1.15,2013-02-28 02:35:00,
2013-02-27 20:40:00,44.6,36.1,29.71,West,280,6.0,28.0,72,0.00,,,0.00,Wunderground v.1.15,2013-02-28 02:40:00,
2013-02-27 20:45:00,44.5,36.0,29.71,West,277,7.0,28.0,72,0.00,,,0.00,Wunderground v.1.15,2013-02-28 02:45:00,
2013-02-27 20:50:00,44.5,36.4,29.71,West,275,6.0,6.0,73,0.00,,,0.00,Wunderground v.1.15,2013-02-28 02:50:00,
2013-02-27 21:00:00,44.3,36.5,29.71,WNW,289,7.0,28.0,74,0.00,,,0.00,Wunderground v.1.15,2013-02-28 03:00:00,
2013-02-27 21:05:00,44.3,36.5,29.71,WNW,296,7.0,28.0,74,0.00,,,0.00,Wunderground v.1.15,2013-02-28 03:05:00,
2013-02-27 21:10:00,44.3,36.2,29.72,WNW,294,7.0,7.0,73,0.00,,,0.00,Wunderground v.1.15,2013-02-28 03:10:00,
2013-02-27 21:15:00,44.2,35.4,29.72,NW,326,6.0,9.0,71,0.00,,,0.00,Wunderground v.1.15,2013-02-28 03:15:00,
2013-02-27 21:20:00,44.2,34.3,29.72,NNW,327,6.0,6.0,68,0.00,,,0.00,Wunderground v.1.15,2013-02-28 03:20:00,
2013-02-27 21:25:00,44.1,32.7,29.72,NW,323,8.0,9.0,64,0.00,,,0.00,Wunderground v.1.15,2013-02-28 03:25:00,
2013-02-27 21:30:00,44.0,32.6,29.72,WNW,282,10.0,10.0,64,0.00,,,0.00,Wunderground v.1.15,2013-02-28 03:30:00,
2013-02-27 21:35:00,43.8,32.4,29.72,West,280,9.0,11.0,64,0.00,,,0.00,Wunderground v.1.15,2013-02-28 03:35:00,
2013-02-27 21:40:00,43.7,32.3,29.73,West,273,9.0,9.0,64,0.00,,,0.00,Wunderground v.1.15,2013-02-28 03:40:00,
2013-02-27 21:45:00,43.6,32.2,29.73,NNW,344,9.0,28.0,64,0.00,,,0.00,Wunderground v.1.15,2013-02-28 03:45:00,
2013-02-27 21:50:00,43.5,32.1,29.73,WNW,283,9.0,9.0,64,0.00,,,0.00,Wunderground v.1.15,2013-02-28 03:50:00,
2013-02-27 22:00:00,43.3,32.3,29.73,NW,309,4.0,4.0,65,0.00,,,0.00,Wunderground v.1.15,2013-02-28 04:00:00,
2013-02-27 22:05:00,43.2,32.6,29.73,NW,311,5.0,5.0,66,0.00,,,0.00,Wunderground v.1.15,2013-02-28 04:05:00,
2013-02-27 22:10:00,43.0,32.4,29.73,North,350,5.0,5.0,66,0.00,,,0.00,Wunderground v.1.15,2013-02-28 04:10:00,
2013-02-27 22:20:00,42.7,32.9,29.73,WNW,290,3.0,28.0,68,0.00,,,0.00,Wunderground v.1.15,2013-02-28 04:20:00,
2013-02-27 22:25:00,42.5,33.0,29.73,NW,311,3.0,28.0,69,0.00,,,0.00,Wunderground v.1.15,2013-02-28 04:25:00,
2013-02-27 22:30:00,42.3,32.8,29.73,NNW,340,3.0,28.0,69,0.00,,,0.00,Wunderground v.1.15,2013-02-28 04:30:00,
2013-02-27 22:35:00,42.0,32.2,29.73,NW,319,4.0,28.0,68,0.00,,,0.00,Wunderground v.1.15,2013-02-28 04:35:00,
2013-02-27 22:40:00,41.7,31.9,29.73,NW,324,5.0,5.0,68,0.00,,,0.00,Wunderground v.1.15,2013-02-28 04:40:00,
2013-02-27 22:45:00,41.4,31.6,29.73,NNW,334,4.0,6.0,68,0.00,,,0.00,Wunderground v.1.15,2013-02-28 04:45:00,
2013-02-27 22:55:00,40.9,31.5,29.73,NW,304,3.0,28.0,69,0.00,,,0.00,Wunderground v.1.15,2013-02-28 04:55:00,
2013-02-27 23:00:00,40.7,31.3,29.73,WNW,300,5.0,5.0,69,0.00,,,0.00,Wunderground v.1.15,2013-02-28 05:00:00,
2013-02-27 23:05:00,40.7,31.7,29.73,WNW,290,4.0,9.0,70,0.00,,,0.00,Wunderground v.1.15,2013-02-28 05:05:00,
2013-02-27 23:10:00,40.6,31.6,29.73,WNW,299,4.0,28.0,70,0.00,,,0.00,Wunderground v.1.15,2013-02-28 05:10:00,
2013-02-27 23:15:00,40.6,31.6,29.73,NNW,328,5.0,28.0,70,0.00,,,0.00,Wunderground v.1.15,2013-02-28 05:15:00,
2013-02-27 23:20:00,40.5,31.8,29.73,NNW,336,5.0,28.0,71,0.00,,,0.00,Wunderground v.1.15,2013-02-28 05:20:00,
2013-02-27 23:30:00,40.3,31.3,29.73,West,279,7.0,7.0,70,0.00,,,0.00,Wunderground v.1.15,2013-02-28 05:30:00,
2013-02-27 23:40:00,40.2,31.2,29.73,NW,315,3.0,28.0,70,0.00,,,0.00,Wunderground v.1.15,2013-02-28 05:40:00,
2013-02-27 23:45:00,40.1,31.1,29.73,NNW,332,2.0,28.0,70,0.00,,,0.00,Wunderground v.1.15,2013-02-28 05:45:00,
2013-02-27 23:50:00,40.0,31.0,29.73,West,277,4.0,4.0,70,0.00,,,0.00,Wunderground v.1.15,2013-02-28 05:50:00,
2013-02-27 23:55:00,39.8,30.5,29.74,WNW,298,6.0,11.0,69,0.00,,,0.00,Wunderground v.1.15,2013-02-28 05:55:00,